RH
39 38 37 36 35 34 33 33 34 35 34 33 32 31 30 28 27 26 25 24 24 23 23 22 23 23 22 22 21 20 20 20 19 19 18 17 17 16 16 15 15 15 14 14 14 14 14 14 14 14 14 14 14 14 14 14 14 15 15 16 17 18 22 29 36 43 47 51 54 57 59 57 52 46 41 39 37 37 37 38 38 34 32 31 29 25
36 35 35 34 33 32 33 34 34 34 33 32 31 30 29 27 26 25 25 24 23 24 24 23 22 23 23 21 21 21 20 20 19 19 18 17 17 16 16 16 15 15 14 14 14 14 14 14 14 14 14 14 14 14 14 15 15 15 16 17 19 22 28 36 43 48 51 55 58 59 59 54 48 42 37 35 34 34 33 34 34 32 30 30 27 23
33 33 32 32 33 34 35 36 35 34 33 32 31 29 28 26 26 25 25 24 24 24 24 25 23 22 23 22 21 21 21 20 19 19 18 17 17 16 16 16 15 15 14 14 14 14 14 14 14 14 14 14 14 15 15 15 16 16 17 19 22 29 37 44 49 52 56 59 61 60 57 52 45 39 35 32 32 31 30 31 31 31 30 28 26 21
31 31 32 33 35 36 36 36 35 34 33 32 30 29 27 26 26 25 26 25 24 25 25 26 25 22 22 22 22 21 21 20 19 19 18 17 17 16 16 16 16 15 14 14 14 14 14 14 14 14 14 14 14 15 15 16 17 17 19 23 30 38 45 50 54 57 61 63 62 59 54 49 43 37 33 30 30 29 29 30 30 31 30 28 24 20
31 33 34 35 36 35 35 35 34 33 32 31 29 28 27 27 27 26 27 26 26 25 25 25 26 23 21 23 23 22 21 20 19 18 18 17 17 16 16 16 16 15 15 14 14 14 14 14 14 14 14 15 15 16 16 17 18 19 24 31 39 46 51 56 59 62 64 63 60 57 52 47 41 35 33 32 30 30 30 30 31 30 28 26 22 18
34 35 35 35 35 34 34 33 32 32 31 30 29 28 28 28 28 28 27 27 27 26 24 24 26 26 22 22 23 22 21 20 19 18 17 17 17 17 17 16 16 15 15 14 14 14 14 14 14 14 15 15 16 16 17 18 20 25 32 41 48 53 57 60 63 64 63 61 57 54 50 45 39 35 33 33 33 32 30 30 30 28 24 22 19 16
35 34 34 34 34 34 33 33 32 32 31 30 30 30 30 29 29 29 28 27 27 25 25 23 24 25 23 21 22 21 20 19 19 18 18 17 17 17 17 17 16 15 15 14 14 14 14 14 14 15 15 16 16 17 19 22 27 34 42 50 56 59 61 63 64 64 61 58 55 51 48 43 38 35 33 34 34 32 30 29 27 24 21 19 17 15
35 35 35 34 35 34 34 33 32 32 31 31 31 30 30 30 29 29 27 27 26 25 25 23 22 24 23 21 22 21 20 20 19 18 18 18 18 18 17 17 16 15 15 14 14 14 14 15 15 16 16 16 17 19 24 30 36 44 51 57 62 63 64 63 63 62 59 56 52 48 45 42 38 35 35 35 35 32 30 28 24 21 19 17 15 14
36 36 36 35 35 34 33 33 32 32 32 31 31 31 30 30 29 28 27 26 26 25 25 24 22 23 22 20 20 21 20 19 19 19 19 18 18 18 17 17 16 15 14 14 14 14 15 15 15 16 16 17 21 26 32 40 46 53 59 63 65 65 64 62 61 60 57 53 49 46 43 41 39 37 37 37 36 33 29 26 22 18 17 15 14 13
37 37 36 35 35 34 33 33 32 32 32 31 31 31 30 29 28 28 27 26 26 25 25 24 23 22 21 19 18 19 20 19 19 19 19 18 18 17 17 16 16 15 14 14 14 15 15 16 16 17 19 24 29 35 41 48 54 59 64 66 67 66 63 61 59 58 55 51 46 44 42 41 40 39 38 38 35 32 28 23 19 16 15 14 13 13
38 36 36 35 35 34 33 33 32 32 31 31 30 30 29 28 28 27 26 26 25 25 25 24 23 21 20 19 17 18 19 18 18 18 18 18 17 17 16 15 15 14 14 15 15 15 15 16 18 21 27 34 40 45 49 54 60 65 68 68 67 65 62 59 57 55 52 49 44 41 40 40 39 37 36 35 32 28 24 20 17 15 13 13 12 14
37 36 36 35 35 34 33 32 32 31 30 29 28 28 27 27 27 26 26 25 25 24 24 24 23 22 20 18 17 17 17 17 17 18 18 17 17 17 16 15 14 14 15 15 15 15 16 19 24 31 38 44 48 52 56 60 64 67 68 67 66 63 59 56 55 53 49 45 41 39 38 36 35 34 32 31 28 24 20 16 14 14 13 12 13 15
38 37 36 35 34 33 32 32 31 30 29 28 27 26 26 25 25 25 24 24 24 23 23 22 22 22 21 18 16 16 17 16 17 17 17 17 17 17 16 15 15 15 15 16 16 16 20 27 35 41 46 51 55 58 61 63 64 66 66 65 62 58 55 53 51 49 45 41 38 36 34 32 31 30 28 26 23 20 17 15 13 13 13 12 14 16
40 38 36 34 33 32 31 31 30 29 28 27 26 25 24 23 22 22 22 21 21 20 20 21 20 21 21 18 15 16 16 16 16 16 16 17 18 17 16 15 15 16 16 16 18 22 29 37 44 48 51 55 59 61 62 62 62 63 63 60 56 53 50 48 46 44 40 36 34 32 30 28 27 26 24 22 20 17 15 14 13 13 13 13 15 17
40 38 36 34 33 31 31 30 29 28 27 27 26 24 23 22 21 19 19 18 18 18 18 19 18 20 21 18 15 14 14 15 16 15 15 16 18 17 16 16 16 16 18 20 26 33 39 44 48 51 55 58 61 62 61 59 58 59 58 54 50 47 45 43 41 38 35 32 30 28 26 25 24 23 21 19 17 16 14 14 13 13 13 14 15 17
39 37 35 33 32 30 30 28 27 26 26 25 24 23 22 20 19 18 17 16 16 16 16 18 18 20 21 19 15 14 14 14 14 14 14 16 17 17 15 16 18 20 23 27 35 42 46 48 50 52 56 58 59 59 57 55 55 54 52 48 44 42 40 38 36 33 30 28 26 24 23 23 22 20 19 17 16 15 14 14 13 13 13 14 15 17
37 36 34 31 30 29 28 27 26 24 23 22 21 20 19 18 18 17 16 15 15 15 15 17 18 20 23 20 15 12 12 13 14 13 14 16 17 17 18 22 25 28 30 33 39 46 48 50 52 52 53 55 55 55 53 52 51 49 46 42 40 38 36 34 32 29 26 24 23 21 21 21 20 19 17 16 15 14 14 14 14 13 13 14 15 16
34 34 33 29 28 27 26 25 24 22 21 20 19 19 17 17 16 15 15 15 15 14 15 17 18 19 22 21 14 12 12 12 13 14 15 19 20 22 27 32 34 33 32 34 40 46 48 49 51 50 49 49 50 50 50 49 46 43 40 38 36 34 33 31 28 25 23 21 20 20 19 19 18 17 16 16 15 15 14 14 14 13 13 13 14 16
30 31 31 29 27 26 25 24 22 21 20 19 19 18 17 17 16 16 16 16 15 15 14 16 17 17 20 20 14 13 14 14 16 20 26 30 30 31 35 38 37 34 32 34 40 44 46 46 46 45 44 45 46 46 46 44 40 38 36 35 33 32 30 28 25 22 19 18 18 19 18 18 18 17 16 16 16 15 14 14 14 13 13 14 15 16
27 28 28 27 26 24 23 22 21 20 20 18 19 18 18 18 17 17 17 16 16 14 13 15 14 16 22 20 16 17 20 23 27 36 42 42 38 36 36 34 33 32 31 32 37 40 42 42 40 39 40 41 42 42 40 38 36 35 34 32 30 29 27 24 21 18 17 17 18 18 18 18 17 16 16 16 15 15 15 14 14 13 13 14 16 16
25 24 25 24 23 22 21 21 20 20 20 20 22 21 20 19 17 17 16 15 16 13 13 14 11 19 30 24 22 29 33 37 43 47 48 44 39 36 33 30 29 29 29 30 33 36 37 37 36 36 38 39 39 37 36 35 34 32 30 28 27 25 23 20 18 16 15 17 18 18 18 18 17 16 16 16 15 15 15 15 14 14 14 15 17 17
22 21 21 21 22 21 21 21 21 21 22 22 23 22 21 19 16 16 14 14 15 12 14 13 10 27 44 36 33 42 43 45 48 46 45 42 37 34 30 28 27 26 27 27 29 32 32 32 33 35 37 36 34 33 32 31 30 27 26 25 24 22 19 17 15 14 15 18 18 17 18 18 17 16 16 15 15 15 15 15 15 14 14 17 18 18
20 19 19 19 21 22 23 24 23 22 22 22 22 20 19 17 15 14 13 13 14 14 16 16 17 35 51 45 40 43 41 42 42 38 37 35 31 29 27 26 26 24 24 25 26 28 28 29 31 33 33 32 30 29 28 26 24 23 23 22 20 18 16 14 13 14 17 19 18 18 18 18 17 16 16 15 15 15 15 15 15 14 15 17 18 18
19 19 19 20 23 24 24 24 22 21 20 20 20 19 18 17 14 14 15 15 18 22 24 24 26 36 44 43 38 36 35 36 35 31 28 27 25 25 24 23 23 22 22 23 24 24 25 26 27 28 28 27 26 24 22 21 20 20 20 18 18 16 14 14 14 15 18 19 18 18 18 17 16 15 15 15 15 15 14 14 15 15 16 17 18 18
21 21 21 20 21 22 21 21 20 19 19 20 22 24 23 22 22 23 25 25 28 30 30 29 27 28 33 35 32 30 30 29 27 25 22 21 21 21 21 20 19 19 20 20 21 21 22 22 22 22 22 22 21 19 18 18 18 18 17 16 16 15 14 14 14 16 19 19 18 19 18 16 16 15 15 15 15 14 14 14 15 15 16 17 18 17
23 22 21 19 18 18 17 17 17 17 22 28 33 36 36 36 36 35 34 32 30 29 28 26 22 21 25 27 25 26 25 23 22 21 19 18 19 18 17 17 16 16 17 17 17 18 18 18 18 17 17 17 17 17 17 17 16 16 16 16 16 16 16 15 15 17 19 19 18 18 17 16 15 15 15 15 15 14 14 14 15 16 16 16 17 17
21 20 19 18 18 18 17 18 20 23 30 37 40 40 40 39 37 34 31 28 26 23 23 23 19 18 20 20 19 20 19 18 17 17 16 15 15 14 14 13 13 14 13 13 13 14 14 15 14 13 14 15 15 16 15 15 15 15 15 16 17 17 17 15 16 18 18 18 18 17 16 16 15 15 15 15 15 15 14 15 16 16 16 16 17 16
19 19 20 23 28 30 29 31 35 38 40 42 40 37 35 34 31 29 27 25 23 20 19 18 17 15 15 13 13 14 13 13 13 12 11 11 11 11 11 11 11 11 10 10 10 11 11 11 11 12 13 14 14 14 14 14 14 15 15 17 19 19 17 16 16 17 17 16 17 16 16 16 15 15 16 16 16 16 15 17 17 16 16 17 17 16
23 27 30 36 43 45 42 42 43 42 40 38 36 32 30 28 26 24 23 20 18 16 14 14 13 12 11 9 9 10 9 9 9 8 8 8 8 8 8 8 9 9 9 9 9 10 10 10 11 12 13 13 13 13 14 14 15 16 17 18 19 19 17 16 16 16 15 15 16 16 16 16 16 16 17 17 17 16 16 17 16 16 16 17 17 16
34 38 40 42 43 42 39 37 35 32 30 28 26 24 22 20 18 17 15 14 13 11 10 10 10 9 8 7 7 7 7 7 7 7 7 7 7 7 8 8 8 8 9 9 9 10 10 10 11 12 12 13 13 14 14 16 17 18 19 19 19 19 17 16 16 16 15 16 16 16 17 17 16 17 18 19 18 16 16 17 16 15 15 16 17 16
37 37 35 32 30 28 26 24 22 20 19 17 15 14 13 12 11 10 10 10 9 8 8 8 8 8 8 8 7 7 8 8 8 7 7 7 8 8 8 8 8 9 10 11 11 11 12 12 12 13 13 13 14 16 17 18 20 20 20 19 19 19 18 17 17 16 16 16 16 17 17 17 17 18 18 19 18 16 16 17 15 15 15 15 15 15
29 26 23 20 18 17 15 14 13 12 11 10 9 8 8 8 8 8 9 9 8 8 8 7 8 8 8 8 8 9 9 9 9 8 8 8 9 9 9 9 10 12 13 13 14 13 13 13 13 13 14 15 16 18 19 20 21 21 20 20 19 19 18 18 17 16 16 17 17 18 18 17 18 19 19 19 18 16 16 16 15 15 15 15 14 15
22 19 16 14 12 11 10 9 8 8 7 6 6 6 6 6 6 7 8 8 7 7 7 7 8 8 8 8 8 9 9 10 9 9 8 8 9 10 10 11 11 12 13 13 13 13 13 13 14 14 15 16 17 18 19 19 20 21 20 20 20 20 19 18 17 17 17 17 17 18 18 18 19 19 19 19 18 17 15 15 15 15 15 15 14 14
19 17 14 12 10 9 8 6 6 7 6 5 5 5 5 5 5 6 6 7 6 6 7 7 7 7 7 8 8 8 9 10 10 9 9 8 8 9 10 10 10 11 12 12 12 12 12 13 13 14 14 15 16 16 17 18 19 19 19 19 19 19 18 17 17 17 17 17 18 19 19 19 20 20 20 19 18 17 16 15 15 15 15 14 14 14
18 16 14 12 10 9 8 7 7 7 7 5 5 4 4 4 4 5 6 7 7 6 6 7 7 8 8 8 9 9 9 10 10 10 9 8 8 8 8 9 9 10 10 10 11 12 12 13 13 14 14 15 15 16 17 17 18 18 18 18 18 18 18 17 16 17 17 17 18 20 20 21 20 21 21 19 18 18 17 16 16 15 15 14 14 15
19 17 16 14 12 11 10 8 7 7 7 5 5 5 5 5 5 5 7 10 9 7 7 8 8 9 9 8 9 9 8 9 11 10 9 8 8 8 8 8 9 9 10 10 11 12 13 13 13 14 14 15 15 16 17 17 18 17 17 17 17 17 16 15 16 17 16 16 18 19 21 21 20 21 20 19 18 18 17 16 16 15 15 14 15 15
21 20 18 16 14 13 12 11 9 9 8 7 7 7 6 7 6 6 7 10 9 8 7 8 8 8 8 8 8 8 8 8 10 11 10 9 9 9 9 9 9 10 10 10 11 12 12 12 12 12 13 14 15 16 17 17 17 17 17 16 15 15 14 13 15 16 15 15 17 18 20 20 20 20 19 18 17 18 17 16 16 15 15 15 16 16
22 22 20 18 16 15 14 13 12 11 9 8 8 7 6 6 6 6 7 9 9 8 7 8 7 7 7 7 7 7 7 7 9 10 11 11 11 11 11 12 12 11 11 11 11 12 13 13 13 13 12 13 15 16 16 16 16 16 15 14 13 13 12 12 15 16 15 15 16 17 18 19 19 19 18 17 17 17 17 16 15 15 15 15 16 16
23 22 20 18 17 17 17 16 16 15 13 13 12 11 9 8 8 8 8 9 8 8 7 7 7 7 7 7 7 6 6 6 7 9 10 11 12 12 12 12 13 13 13 12 12 12 12 13 13 13 13 13 13 14 15 14 14 14 13 12 12 12 11 12 14 15 15 15 15 15 16 18 18 18 17 17 16 16 16 16 15 15 15 16 16 15
20 19 19 18 18 19 19 19 19 19 18 18 18 16 14 14 13 12 10 9 8 8 7 6 6 6 6 7 7 6 6 6 6 6 8 9 9 10 11 11 11 11 12 12 12 11 11 12 12 12 12 11 11 12 13 13 13 12 12 12 12 11 11 13 14 14 14 15 15 14 15 16 16 16 16 16 15 15 15 15 15 14 14 15 16 15
18 18 19 19 19 19 19 18 18 19 19 19 19 18 16 15 15 14 13 11 9 9 8 7 5 5 5 5 5 5 6 5 5 5 6 6 7 8 9 9 9 9 9 9 9 9 10 11 11 11 11 10 10 11 11 12 12 12 12 12 12 11 12 13 13 13 14 15 14 14 14 15 15 15 15 15 14 14 14 14 14 13 13 14 15 15
16 17 19 19 18 18 18 17 16 16 17 18 18 16 15 14 14 15 14 13 11 10 10 9 7 6 5 4 4 4 4 4 4 5 5 5 6 6 7 7 8 8 9 9 9 9 9 10 11 12 12 11 11 11 12 12 12 12 12 12 12 13 13 13 13 13 14 14 14 14 13 13 14 14 13 13 13 12 13 13 13 13 13 13 14 14
15 17 17 17 16 16 17 16 15 14 16 17 17 15 14 14 14 14 15 15 14 12 11 11 11 8 7 6 6 5 5 4 4 4 4 5 5 5 6 6 7 7 8 9 10 10 10 11 12 13 14 14 12 12 13 12 12 13 13 12 12 13 14 14 13 13 14 14 14 14 13 12 13 12 12 12 12 11 12 12 12 12 12 12 13 13
14 15 14 14 14 15 17 16 15 16 18 20 20 17 15 14 14 14 14 15 14 13 12 12 12 11 9 8 7 7 6 5 4 4 4 4 4 5 5 5 6 6 7 7 8 9 10 11 12 13 15 15 13 12 12 12 12 12 12 12 12 13 13 14 14 13 13 14 13 13 13 12 12 11 11 11 11 11 11 11 12 12 12 12 12 12
12 12 12 13 14 15 17 18 16 17 20 22 21 19 16 15 15 14 14 13 13 12 12 11 11 11 10 8 7 7 7 6 5 4 4 4 4 4 4 5 5 6 6 7 7 8 9 10 11 12 13 14 13 12 11 11 11 11 12 12 12 13 13 13 13 13 12 12 12 12 12 12 11 11 10 10 10 10 10 10 11 11 11 11 12 12
11 12 11 12 13 14 17 19 17 17 19 20 19 18 17 15 14 14 13 13 13 12 12 11 10 10 10 9 8 7 7 7 6 5 5 4 4 3 4 4 4 5 5 6 6 7 8 9 10 11 12 13 13 12 12 11 11 10 11 12 12 12 13 13 12 12 11 11 11 11 11 12 11 11 10 10 10 10 10 10 10 11 11 11 11 11
12 13 12 12 13 13 16 17 16 17 19 19 17 16 15 14 14 14 14 13 13 13 12 11 11 10 10 9 8 7 7 7 6 5 5 5 4 4 3 3 4 4 4 4 5 6 7 8 9 10 11 12 13 13 13 12 12 11 12 12 12 12 12 12 12 11 11 10 10 10 11 11 10 10 10 10 9 9 10 10 10 10 10 10 10 11
14 14 13 12 13 15 17 17 16 16 19 20 18 15 14 14 14 14 14 13 12 12 11 11 11 10 10 9 9 8 7 7 7 6 5 5 5 4 4 4 3 3 4 4 4 5 5 6 7 8 10 10 11 12 12 12 12 12 12 12 13 12 12 11 11 11 11 10 10 10 10 10 10 10 9 9 10 9 10 10 10 10 10 10 10 10
17 16 14 13 14 16 19 18 16 15 17 20 20 16 14 13 12 12 12 11 10 10 10 10 11 11 10 10 9 8 7 7 7 6 6 5 5 4 4 4 3 3 4 4 4 4 5 5 6 7 8 9 10 10 11 11 11 11 11 12 12 12 11 10 10 10 10 10 10 10 10 9 10 10 9 9 9 9 9 10 10 9 10 10 9 9
19 18 17 17 17 19 21 21 19 16 15 17 19 17 15 13 12 12 12 11 11 11 10 10 11 11 11 11 10 9 8 7 6 6 6 5 5 5 4 4 4 4 4 4 4 4 4 5 5 6 6 8 8 8 9 10 10 10 10 11 11 11 10 10 10 10 9 9 9 9 10 10 9 9 9 9 9 9 9 9 9 9 9 9 8 8
22 24 25 23 21 22 24 25 24 21 19 18 19 19 17 15 14 13 13 12 12 11 11 10 10 9 9 9 9 9 8 7 6 6 6 5 5 5 4 4 4 4 4 4 4 4 4 5 5 5 6 6 7 7 8 8 9 9 9 9 10 10 9 9 9 9 9 9 9 9 9 9 9 9 9 9 9 8 8 8 9 8 8 8 8 7
Wind_Speed
12 13 14 16 18 19 21 22 24 26 28 30 31 33 35 37 38 40 41 42 43 44 47 48 47 47 51 53 53 54 56 57 58 59 60 61 61 62 63 64 64 65 65 66 67 67 68 68 68 68 68 69 69 69 69 69 69 69 69 69 69 70 71 72 73 75 78 80 83 85 87 89 90 92 94 95 96 97 98 100 101 103 104 105 105 104
16 17 18 19 21 22 23 25 27 29 31 32 34 35 37 38 40 41 42 43 44 45 48 51 51 49 51 55 56 56 57 58 59 60 62 63 63 64 65 66 66 67 67 68 68 69 69 70 70 70 70 70 71 71 71 71 71 71 71 71 71 72 73 74 76 79 81 83 85 87 89 92 93 94 95 97 98 99 100 101 102 104 105 106 106 104
19 20 21 22 23 25 26 28 30 32 33 35 36 38 39 40 41 43 44 45 46 46 47 51 56 54 52 56 58 58 59 60 61 63 63 65 66 66 66 67 68 69 69 69 70 70 71 71 71 71 71 72 72 72 73 72 72 72 73 73 73 74 75 77 79 82 84 86 88 90 92 94 95 96 97 98 100 101 101 103 104 105 106 107 106 104
22 23 24 25 26 27 29 31 32 34 36 37 39 40 41 42 43 44 46 47 48 48 48 49 56 61 56 56 60 61 61 63 64 66 66 67 68 68 69 69 70 71 71 71 72 72 73 73 73 73 73 73 73 73 74 74 74 74 74 75 76 77 78 80 82 85 86 88 90 92 94 96 97 98 99 100 101 102 103 104 105 106 107 107 106 104
25 26 27 28 29 30 32 33 35 37 38 40 41 42 43 44 45 46 47 49 50 51 51 49 52 62 63 58 60 64 64 65 67 68 69 70 70 71 71 71 72 72 73 73 74 74 74 74 74 74 74 74 74 74 75 75 76 76 76 77 78 80 82 83 85 87 89 91 92 94 96 98 99 100 100 101 103 104 104 105 106 107 108 107 106 104
28 29 30 31 32 33 35 36 38 39 40 42 43 44 45 46 47 48 49 50 52 54 55 54 51 57 64 61 60 63 65 66 69 70 72 72 73 74 74 74 74 75 75 75 76 76 75 76 76 75 75 75 75 76 76 77 77 77 78 80 81 83 85 86 88 90 91 93 95 96 98 100 101 102 102 103 104 105 106 106 107 108 108 107 106 103
31 32 33 34 36 37 38 39 40 41 43 44 45 46 47 48 49 50 51 52 54 56 58 59 56 56 63 64 62 65 67 68 70 72 74 75 75 76 77 77 77 77 77 77 78 77 76 77 77 76 76 76 77 77 78 78 79 79 81 83 85 87 88 89 91 92 94 95 97 99 100 102 103 103 104 104 105 106 107 107 108 108 108 106 105 103
34 35 36 37 38 40 41 42 43 44 45 46 47 48 49 50 51 52 53 54 56 59 60 62 62 60 64 66 64 66 68 69 72 74 76 77 77 77 78 79 79 79 78 78 78 78 77 77 77 77 78 78 78 79 79 80 81 82 84 86 87 89 91 92 93 94 96 97 99 101 102 103 105 105 106 106 107 107 108 108 108 108 107 105 104 101
36 37 39 40 41 42 43 44 46 46 47 49 49 50 52 52 54 54 55 56 57 60 62 64 66 65 66 68 66 66 69 69 71 74 76 78 78 78 79 80 80 80 80 80 79 79 78 78 77 78 79 79 80 81 82 83 84 85 87 88 90 92 93 94 95 97 98 100 101 103 104 105 106 106 107 108 108 108 108 108 107 107 105 104 102 100
38 40 41 42 43 45 46 47 48 49 49 51 52 53 54 55 56 57 58 59 59 62 64 67 69 70 70 71 69 69 69 70 71 74 76 79 79 80 80 80 80 81 81 81 80 79 78 78 78 79 80 81 82 83 84 86 87 88 89 91 93 94 95 96 97 99 100 101 103 104 105 106 107 107 108 109 109 109 108 107 106 105 104 102 101 98
41 42 43 45 46 47 48 49 51 52 52 53 54 55 56 57 58 59 61 61 62 63 66 69 72 74 75 74 72 72 71 71 72 74 77 80 81 82 82 81 80 81 81 81 81 80 79 78 79 80 81 83 84 86 87 89 89 90 92 93 95 96 97 98 99 100 102 103 104 105 106 107 107 107 108 109 109 108 107 106 105 103 102 101 99 97
44 45 46 48 49 50 51 52 54 55 55 56 58 58 59 59 60 61 63 64 64 65 67 70 73 77 80 79 75 75 75 73 74 75 77 81 83 84 85 83 82 82 82 81 81 81 80 80 81 82 83 85 87 89 90 91 92 92 93 95 96 98 99 100 101 102 103 104 105 106 106 107 107 108 108 108 108 107 106 104 103 102 101 99 97 95
48 49 49 50 52 53 54 56 57 58 59 60 61 62 62 62 62 63 64 65 65 66 68 70 73 77 83 83 78 77 77 76 76 76 77 81 83 85 86 85 84 83 82 82 82 82 82 82 83 84 86 87 89 91 93 94 94 94 95 97 98 99 101 102 102 103 104 105 106 106 107 107 107 108 108 108 107 106 104 102 101 100 99 97 95 93
51 53 53 54 55 57 57 59 60 61 62 63 64 66 66 67 66 65 66 66 66 67 68 71 73 77 84 86 81 79 78 77 78 78 77 80 84 86 86 85 84 84 83 83 83 83 84 85 85 87 88 90 92 94 95 96 96 96 97 98 100 101 102 103 104 104 105 106 106 106 107 107 107 107 107 107 106 104 102 101 100 98 97 95 93 91
53 56 57 57 59 60 60 62 63 64 65 66 68 69 70 71 72 71 71 70 69 67 68 71 73 76 84 88 85 82 79 78 79 79 78 80 84 86 86 85 84 84 84 83 84 85 87 88 89 90 91 92 94 96 97 98 98 98 99 101 102 103 104 104 105 105 106 106 107 107 107 107 107 107 106 105 104 102 101 99 98 97 95 93 91 89
55 58 60 61 62 63 64 65 66 67 68 69 70 72 73 75 76 76 76 75 74 71 68 71 72 74 83 89 89 84 80 79 81 80 78 80 83 85 85 85 85 85 84 84 85 87 90 92 92 93 94 95 96 98 100 101 101 101 102 103 104 105 105 105 106 106 106 106 106 106 106 106 106 106 105 104 102 101 99 98 97 95 93 91 89 87
56 60 63 64 65 66 67 68 70 71 71 72 73 75 76 77 78 79 79 78 78 75 71 71 71 73 80 88 91 87 82 81 82 81 80 81 84 85 86 87 89 88 87 87 88 90 93 95 95 96 96 97 98 100 102 103 103 103 104 104 105 106 106 106 106 106 106 106 106 105 105 105 105 105 104 102 101 99 98 97 95 94 92 90 88 86
58 61 65 68 68 69 71 72 73 75 76 76 77 78 79 80 81 82 82 81 81 78 73 71 71 73 78 86 90 89 86 85 85 83 83 85 87 88 88 90 92 93 91 90 91 94 96 97 97 98 99 100 101 102 103 104 105 105 105 106 106 107 107 107 106 106 105 105 104 104 104 104 104 103 102 101 100 98 97 95 94 92 90 89 87 85
62 62 66 70 71 72 74 75 77 78 79 80 81 82 83 83 84 84 84 84 83 81 77 73 71 73 78 83 86 88 89 89 88 87 88 90 92 92 93 94 96 97 95 93 94 96 98 98 99 100 101 102 103 104 105 106 106 106 106 106 107 107 107 107 106 105 104 103 103 103 103 103 102 101 100 99 99 97 95 94 92 90 89 87 86 85
66 65 66 70 73 74 76 78 79 80 82 82 83 84 85 86 86 86 86 85 86 85 81 78 74 72 78 83 83 84 88 90 90 90 91 94 96 97 97 98 98 99 97 96 96 98 99 100 100 101 103 104 105 105 106 107 107 106 107 107 107 107 107 106 105 104 102 102 102 102 101 101 100 99 98 98 97 96 94 92 90 88 87 86 86 84
69 69 69 71 74 76 78 80 81 82 83 84 85 86 87 88 88 88 86 86 87 87 85 84 77 72 78 84 83 85 89 90 92 93 94 97 99 100 101 100 100 100 99 98 99 100 100 101 102 103 104 105 106 106 107 107 107 107 107 107 107 107 106 105 103 102 100 100 100 100 99 99 98 97 96 96 95 93 92 90 88 87 86 85 85 83
72 72 72 73 75 77 79 81 83 84 85 86 87 88 89 90 90 90 88 87 88 88 88 88 81 76 81 85 84 88 91 92 95 97 98 100 101 102 102 102 102 102 101 101 101 101 102 102 103 104 105 106 107 107 107 107 107 107 106 107 107 106 105 103 101 99 98 98 98 97 97 96 96 95 94 94 93 91 89 88 86 85 84 84 83 82
76 76 75 75 76 79 80 82 83 84 85 87 89 91 91 92 92 92 91 90 90 89 90 90 85 83 87 88 88 92 93 94 97 100 100 101 102 103 103 103 103 103 103 103 103 103 103 103 104 105 106 107 107 107 107 106 106 106 105 105 105 104 102 100 99 97 96 96 96 95 94 94 94 93 92 92 91 89 87 86 85 83 82 82 82 81
79 79 79 77 77 79 81 83 84 85 85 88 91 93 94 94 93 93 93 93 93 93 93 93 91 90 91 92 93 94 94 95 98 100 101 102 103 104 104 105 105 104 104 104 104 104 104 104 105 105 106 106 106 106 105 105 105 104 104 104 103 102 100 98 96 94 93 93 93 93 92 92 91 91 90 89 88 87 85 84 83 82 81 80 80 80
81 82 82 81 79 79 81 83 84 84 85 87 90 93 94 93 93 93 94 95 95 95 95 96 96 94 94 95 96 95 95 97 99 101 103 104 105 106 105 105 105 105 105 105 104 104 104 104 104 105 105 104 104 104 103 103 103 103 102 101 101 100 98 96 94 91 91 91 90 90 90 89 89 88 88 87 86 85 84 83 82 81 80 79 78 78
83 85 86 86 85 85 85 85 84 83 83 84 88 92 95 95 95 95 96 96 96 96 96 98 98 97 97 98 98 97 99 100 101 103 104 105 106 107 106 106 105 104 105 104 103 103 103 103 103 103 103 102 102 102 101 102 101 101 100 99 99 98 96 94 91 89 88 88 88 88 87 87 86 86 86 85 85 84 83 82 81 80 79 78 77 77
85 87 88 88 89 91 91 89 89 88 87 88 92 97 99 100 100 100 100 99 99 98 98 100 101 100 100 100 99 99 100 100 101 102 103 103 105 105 105 105 104 104 104 103 102 102 102 102 101 101 100 100 100 100 99 99 99 99 98 97 96 96 95 93 89 87 86 86 85 85 85 84 84 84 84 84 84 83 82 81 80 79 78 77 76 76
87 87 88 88 88 91 93 93 93 93 93 95 98 101 103 104 104 103 103 102 102 102 101 102 103 102 102 101 100 100 100 100 100 101 101 101 102 102 102 102 102 102 102 102 101 101 100 100 99 99 99 98 98 98 97 97 97 96 96 94 94 94 93 91 87 85 84 83 83 83 83 82 82 82 83 83 83 82 81 80 79 78 77 76 75 75
88 88 88 87 88 92 95 95 95 95 95 97 101 104 106 106 105 103 103 102 102 103 103 102 102 101 100 99 99 98 98 98 99 99 99 99 99 99 99 99 99 100 100 100 99 99 99 98 98 97 97 97 97 96 95 94 94 94 94 93 92 93 92 89 85 83 82 81 81 81 81 80 80 81 81 82 82 81 80 80 78 77 76 75 75 74
91 91 91 90 89 92 94 95 95 95 94 96 100 104 106 105 103 100 99 99 99 99 99 99 98 96 97 97 96 95 94 94 96 97 96 95 95 96 97 97 97 97 97 98 97 97 97 97 97 96 95 95 95 94 93 92 92 93 92 91 91 91 90 87 84 82 81 80 80 80 80 79 79 79 80 81 81 80 80 79 77 76 75 74 74 74
95 94 94 93 91 92 94 94 93 93 93 94 98 101 102 100 97 94 93 94 94 94 94 94 93 92 92 93 92 91 90 90 92 94 93 92 91 92 93 94 94 95 95 96 96 96 96 95 94 93 93 92 92 91 91 90 91 91 91 90 89 88 87 84 82 81 80 79 79 79 79 78 78 78 78 79 80 80 79 78 76 75 74 74 73 73
98 98 97 95 93 92 93 92 90 89 89 91 94 96 95 92 90 88 87 89 90 90 90 89 88 88 87 87 86 84 83 84 87 90 90 88 88 89 91 91 91 92 92 92 93 92 92 92 91 90 90 90 89 89 88 88 88 89 89 88 87 86 84 82 80 79 79 79 79 79 79 78 77 77 77 77 78 79 78 77 75 74 74 73 73 72
102 102 101 99 96 94 92 90 88 86 85 87 89 89 86 85 84 82 82 84 86 87 86 85 84 83 83 83 81 79 77 79 82 85 86 85 84 85 87 88 89 89 89 89 89 89 88 88 88 88 88 88 87 86 85 85 85 86 86 85 85 84 82 80 79 79 78 78 78 78 78 78 76 76 76 76 77 78 78 76 75 74 73 73 72 71
104 104 103 102 100 96 94 91 88 86 86 86 86 85 83 83 82 79 78 80 82 83 83 82 81 81 80 80 80 78 76 76 79 82 83 82 82 81 82 84 85 86 86 86 87 88 87 87 86 86 86 86 85 84 83 82 83 83 83 83 82 82 81 79 78 78 78 78 78 77 78 77 76 75 75 75 75 76 76 75 74 73 72 72 71 71
102 102 102 102 101 99 97 94 90 89 90 89 87 86 85 84 83 81 80 82 83 83 83 83 82 82 80 79 79 77 75 75 78 81 81 81 81 80 80 81 82 82 83 84 85 86 86 85 84 84 84 84 83 81 81 80 80 80 80 81 81 80 79 77 77 78 78 77 76 76 77 76 75 74 74 74 74 74 75 74 73 72 72 71 70 70
98 99 100 101 101 101 99 98 95 94 94 92 90 90 89 88 87 84 82 84 86 85 84 84 84 83 82 80 79 77 75 74 77 80 81 80 80 80 80 80 80 80 81 81 81 82 82 82 81 81 80 80 80 78 78 77 77 77 78 78 78 79 78 76 75 77 77 76 75 75 75 75 75 74 74 74 73 73 73 73 72 71 70 70 69 69
96 97 99 100 100 101 100 99 98 97 96 95 94 93 92 91 90 87 85 85 86 85 84 84 84 83 82 80 78 77 74 73 76 79 80 80 80 80 80 80 80 79 79 79 79 80 80 80 79 78 77 76 76 76 75 74 74 74 75 76 76 76 76 74 73 75 76 75 74 74 73 74 74 73 73 73 72 71 71 72 72 70 69 68 68 67
94 96 97 98 99 99 99 99 99 98 98 97 96 96 95 93 92 91 89 88 88 87 86 85 84 82 81 79 77 76 72 70 72 75 77 78 79 79 79 80 80 80 79 78 76 76 78 79 78 78 76 75 74 74 73 72 72 72 73 73 73 74 74 71 72 74 74 73 73 73 73 73 73 73 73 73 72 71 70 71 71 70 68 67 66 66
92 93 95 96 96 96 97 97 97 99 99 98 98 98 98 97 96 95 93 91 90 89 87 86 85 83 82 79 77 75 72 68 66 69 71 72 74 76 76 75 76 77 78 77 76 74 74 76 76 76 75 73 72 71 71 70 70 71 71 71 72 73 71 69 70 72 72 72 72 72 72 72 72 72 72 72 72 70 69 70 70 69 67 66 65 64
88 89 90 92 92 92 93 93 93 95 96 96 96 97 97 96 96 97 96 94 92 91 89 87 85 83 81 79 77 75 73 69 64 63 66 67 68 70 72 72 71 72 73 73 74 72 72 73 74 73 73 72 70 69 69 68 68 69 70 70 71 71 70 69 70 71 70 71 71 71 71 71 71 71 70 71 71 70 68 69 69 68 66 65 64 63
83 85 86 88 88 88 90 90 89 90 92 93 93 94 94 93 92 92 94 95 94 94 93 92 89 85 82 80 78 75 74 72 67 64 64 65 65 66 68 69 69 69 70 70 70 69 69 70 71 71 71 70 69 67 65 65 66 67 68 68 69 69 69 70 70 70 69 70 70 70 70 70 70 70 69 70 71 70 68 68 68 67 66 64 63 62
80 80 82 84 84 83 85 86 86 86 87 89 90 91 92 91 89 89 90 92 94 94 94 95 95 93 90 88 85 81 77 75 72 69 66 66 66 65 65 66 67 67 68 69 70 69 68 68 68 70 70 70 69 67 64 63 63 65 66 67 67 67 68 70 70 69 69 69 69 69 69 68 68 69 68 68 69 69 67 66 67 67 65 64 62 61
77 78 78 79 80 79 79 83 84 84 85 87 89 90 91 90 90 89 89 90 92 94 94 94 95 96 95 94 93 91 88 83 79 75 72 69 68 67 65 66 66 66 66 67 68 68 67 67 66 67 68 69 68 67 65 62 62 63 65 65 65 66 67 68 69 69 68 67 67 68 68 67 67 67 66 66 67 68 66 65 66 66 64 63 62 60
74 75 75 75 76 75 75 79 80 80 81 85 87 89 91 91 90 90 90 90 91 93 94 94 94 95 96 96 95 95 94 91 87 83 79 74 72 69 67 66 66 65 65 65 66 66 65 64 64 64 65 67 67 65 63 62 61 62 63 64 63 63 65 66 67 67 66 65 65 66 66 65 65 65 65 65 65 66 65 64 64 65 64 62 61 59
72 72 73 72 72 70 70 75 77 74 75 79 83 86 88 89 89 89 90 90 91 92 93 93 93 94 95 96 95 95 95 94 91 88 85 81 76 72 69 66 66 65 63 63 63 63 62 60 60 60 61 64 66 64 62 62 61 60 61 62 61 61 62 64 64 64 64 64 63 63 63 63 63 63 63 63 63 64 64 63 63 63 62 61 60 59
72 72 72 70 69 67 66 70 74 73 72 76 80 83 86 87 87 88 89 90 90 91 92 93 93 93 94 95 95 95 95 95 93 91 89 87 83 77 72 68 66 65 63 62 61 60 59 57 57 57 57 59 63 63 62 61 61 60 60 60 60 60 60 61 62 62 62 62 62 62 62 62 62 62 62 62 62 62 62 62 61 61 60 60 59 58
73 73 72 70 69 68 66 68 71 71 71 75 79 81 84 86 86 87 88 89 90 91 92 92 93 93 93 94 95 95 94 95 95 93 91 90 87 82 77 72 68 65 64 62 60 58 55 53 53 54 55 57 59 60 59 60 60 60 59 59 59 59 59 59 59 60 61 61 61 61 61 61 60 61 61 60 60 60 60 60 60 59 58 58 57 57
75 75 74 72 71 69 69 71 72 70 70 75 80 82 83 85 86 86 87 89 90 90 91 91 92 93 93 94 95 95 95 95 96 95 93 91 89 86 81 76 71 67 65 64 62 58 54 50 49 50 52 55 56 56 56 57 58 58 57 56 58 58 58 58 58 58 59 60 60 60 60 60 59 59 59 59 58 58 58 58 58 57 56 56 55 55
79 78 78 78 75 72 72 75 76 75 73 75 80 83 84 85 86 87 88 90 91 91 92 92 93 94 95 96 97 97 97 96 96 96 94 92 90 87 84 80 75 70 68 65 63 60 56 50 46 46 49 53 55 54 53 54 56 55 53 53 55 57 57 57 57 58 58 59 59 59 59 59 58 58 58 57 57 56 56 57 57 56 55 54 54 53
81 81 82 83 81 79 78 80 83 83 81 80 83 86 87 89 90 91 92 94 94 95 95 95 95 95 96 97 98 100 100 99 98 98 97 94 92 89 86 82 78 74 72 70 66 62 58 53 48 45 47 51 53 52 50 52 54 53 51 51 53 55 56 56 56 57 58 58 58 58 58 58 57 57 57 57 56 55 54 55 55 54 53 53 52 51
84 86 87 88 88 86 85 87 89 90 90 89 90 91 93 94 95 96 97 97 98 98 98 98 98 97 97 97 98 99 100 100 100 100 99 96 94 91 89 85 82 78 74 73 70 66 60 57 53 49 48 50 52 50 49 50 52 51 50 50 51 52 54 54 54 55 57 57 57 57 57 56 56 56 56 55 55 54 53 53 53 52 51 51 51 50
Wind_Direction
286 286 290 293 294 295 298 300 302 302 302 301 301 302 302 302 302 303 304 305 306 307 307 307 307 308 308 308 309 309 310 310 311 313 314 315 316 318 319 320 321 322 322 322 323 323 323 323 323 323 323 323 322 322 322 322 322 322 323 323 324 324 324 323 323 323 323 324 325 326 326 327 328 329 329 330 331 332 333 333 333 334 334 334 334 334
290 292 292 293 295 298 301 302 302 302 301 302 302 302 301 301 301 302 303 304 306 307 308 307 306 308 309 308 308 309 309 310 312 313 314 315 317 318 319 320 321 321 321 322 322 322 323 323 323 324 324 323 322 322 322 322 322 323 323 324 324 324 324 324 323 324 324 325 325 326 327 327 328 329 330 330 331 332 333 333 333 334 334 334 334 334
292 293 294 297 300 302 302 302 302 302 302 303 302 302 301 301 301 302 303 304 305 306 308 308 307 307 308 307 307 309 310 311 313 313 315 316 317 318 319 320 320 321 321 321 322 322 323 323 324 324 324 323 322 322 322 322 323 323 324 324 324 324 324 324 324 324 325 325 326 326 327 328 328 329 330 331 331 332 333 333 334 334 334 334 334 334
296 298 300 302 302 302 301 301 301 302 302 301 301 301 301 301 302 303 304 305 305 306 307 310 309 306 307 309 309 310 312 313 314 315 316 317 317 318 319 320 320 320 320 321 321 322 323 323 324 324 323 323 322 322 322 322 323 323 324 324 324 324 324 324 324 324 325 326 326 327 327 328 328 329 330 331 331 332 333 333 334 334 334 333 333 334
303 304 304 303 301 300 300 300 300 300 300 300 299 300 301 302 303 304 305 306 306 306 306 308 309 307 307 311 312 312 314 314 315 315 316 317 318 318 319 319 320 320 320 321 321 322 323 323 323 323 323 322 322 322 322 322 323 323 324 324 324 324 324 324 324 325 325 326 326 327 327 328 329 329 330 331 331 332 333 333 333 333 333 333 333 334
306 304 303 302 301 300 300 300 299 299 300 300 300 301 302 302 303 304 306 306 306 306 306 306 308 307 306 309 312 312 313 314 315 316 317 318 318 319 319 319 319 320 320 321 322 322 323 323 323 323 322 322 322 321 322 322 323 323 323 323 323 323 324 324 324 325 326 326 327 327 328 328 329 330 330 331 331 332 332 333 333 333 333 333 333 334
305 303 302 302 301 301 301 300 300 300 300 301 302 302 302 303 304 305 305 306 306 306 306 305 307 308 307 309 312 313 314 316 316 317 317 318 318 319 319 319 319 319 320 321 321 322 322 323 322 322 322 322 321 321 321 322 322 323 323 323 323 323 323 324 325 325 326 326 327 327 328 328 329 330 330 331 331 331 332 333 333 333 332 332 333 333
304 303 302 301 301 301 300 300 300 300 301 301 302 302 303 303 304 304 305 305 306 306 306 306 307 309 308 309 313 314 315 317 317 317 317 317 318 318 317 318 318 319 319 320 320 321 322 322 322 322 321 321 321 321 321 321 322 323 323 323 323 323 323 324 325 325 326 326 327 327 328 328 329 330 330 331 331 331 332 332 332 332 332 332 332 332
302 301 301 300 300 299 299 299 300 300 301 301 301 302 302 303 303 304 304 305 307 307 308 308 308 310 309 310 313 315 315 316 317 317 316 316 316 316 316 317 317 318 318 319 320 321 321 321 321 321 320 320 320 320 320 321 322 322 322 322 322 323 323 324 325 325 326 326 327 327 328 328 329 330 330 330 330 331 331 331 331 331 331 331 331 332
300 300 299 300 299 299 299 300 300 300 300 301 301 302 302 303 303 304 305 306 307 308 309 310 309 310 310 310 313 314 315 316 316 315 315 314 315 315 315 316 316 317 318 318 319 320 320 320 320 320 319 319 319 319 320 321 321 322 322 322 322 323 323 324 325 325 326 326 327 327 328 328 329 329 329 329 329 330 330 331 331 331 331 331 331 331
299 299 299 299 299 299 299 300 300 300 300 300 301 301 302 303 304 305 306 307 308 309 310 311 311 311 310 311 313 314 314 315 315 315 315 314 314 314 314 315 316 316 317 318 318 319 319 319 319 319 319 319 319 319 319 320 321 321 322 322 322 322 323 323 324 325 325 326 326 327 327 327 328 328 328 328 329 329 330 330 330 330 330 330 331 331
299 299 299 299 299 300 299 299 299 299 300 300 300 300 301 302 303 305 306 307 308 310 311 312 312 312 310 311 313 313 313 315 315 315 315 314 314 314 314 314 315 316 317 317 317 317 318 318 318 318 318 318 318 319 319 320 320 321 321 321 321 322 322 323 324 324 325 325 326 326 326 327 327 327 327 327 328 329 329 330 330 330 330 330 330 331
301 300 299 299 299 298 299 299 299 299 300 300 300 300 300 301 302 303 304 306 307 309 310 311 311 311 310 310 312 313 313 315 315 314 314 314 314 314 313 314 315 315 316 316 316 316 317 317 317 318 318 318 318 318 319 319 319 320 320 320 321 321 322 322 323 324 324 325 325 325 326 326 326 326 327 327 328 328 329 329 330 330 330 330 330 331
301 300 299 299 299 298 299 299 299 300 300 301 300 300 301 301 301 302 302 304 305 307 309 310 311 311 309 309 311 312 313 314 314 314 314 314 314 313 312 313 314 314 314 315 315 316 316 316 317 317 317 318 318 318 318 318 318 319 319 320 320 320 321 322 322 323 323 324 324 325 325 325 325 326 326 326 327 328 329 329 329 329 329 329 330 331
300 300 299 299 298 298 299 299 299 300 300 301 301 302 302 302 302 303 303 304 305 306 308 309 310 311 310 309 310 311 313 314 312 312 313 314 313 311 311 311 312 312 312 313 314 315 315 315 316 317 317 317 317 317 317 317 317 318 319 319 319 320 320 321 322 322 323 323 324 324 324 325 325 325 326 326 327 328 328 329 329 329 329 329 330 331
300 299 299 298 298 299 299 299 299 299 300 301 302 302 303 303 304 304 304 305 306 307 309 309 311 312 310 309 309 310 312 312 311 311 312 312 311 309 309 310 310 310 311 312 314 315 315 315 316 316 317 317 316 316 316 316 317 317 318 318 319 319 320 320 321 322 322 323 323 324 324 324 325 325 325 326 327 328 328 328 328 328 329 329 330 331
299 299 298 298 298 299 299 300 300 300 301 301 302 303 303 304 304 304 305 306 306 307 309 310 311 312 311 310 308 309 311 311 310 311 312 311 309 308 309 310 309 309 310 312 314 314 314 314 315 316 316 315 315 315 315 315 316 317 317 318 318 319 319 320 320 321 322 323 323 323 324 324 324 325 325 326 326 327 328 328 328 328 329 329 330 331
298 299 299 299 299 300 301 301 301 302 303 303 303 304 304 304 304 305 305 306 306 307 308 310 311 312 312 310 308 309 311 311 310 312 312 311 309 308 309 309 309 309 311 313 314 314 314 314 315 315 314 314 314 314 314 314 315 316 317 317 317 318 318 319 320 321 322 322 323 323 324 324 324 324 325 326 326 327 327 327 328 328 329 329 330 331
297 299 300 301 301 302 302 303 303 303 304 304 305 305 305 305 305 305 306 306 306 307 308 309 310 312 312 309 307 309 311 310 311 313 312 310 308 308 309 308 308 309 311 313 314 313 313 313 314 313 313 313 313 313 313 314 314 315 316 316 317 317 318 319 320 321 322 322 323 323 323 323 323 324 325 325 326 326 327 327 327 328 329 329 330 331
297 299 300 301 301 302 302 303 303 304 304 305 305 305 305 305 305 305 306 307 307 307 308 308 309 313 312 308 307 309 308 308 310 311 310 308 308 308 307 307 308 309 310 312 312 312 312 312 312 311 311 311 312 312 312 313 314 315 315 316 316 317 317 318 320 321 322 322 322 322 322 323 323 324 325 325 325 326 327 327 327 328 329 329 330 331
297 298 300 301 301 302 302 303 303 304 304 305 305 305 305 305 305 305 306 307 307 307 308 307 309 315 311 307 308 308 307 308 309 308 308 307 306 306 306 307 307 308 310 310 310 310 310 310 310 310 310 311 311 311 312 312 313 314 315 315 315 316 317 318 319 320 322 322 322 322 322 322 323 324 325 324 324 325 326 327 327 328 329 330 330 331
298 299 300 301 301 302 302 303 303 304 305 305 305 305 305 305 305 305 306 306 306 307 308 307 310 313 309 306 308 306 306 307 307 306 306 305 305 305 305 306 307 308 308 308 308 308 309 309 309 309 310 310 310 311 311 312 313 314 314 314 315 316 317 318 319 320 321 321 321 321 322 322 323 324 324 324 324 325 326 327 327 328 329 330 330 331
299 300 300 301 302 302 302 303 303 304 305 305 305 305 305 305 305 306 306 306 306 307 306 306 309 310 307 306 306 305 305 306 305 304 304 304 304 304 304 305 306 306 306 306 307 308 308 308 309 309 309 309 310 310 311 312 312 313 314 314 315 315 317 318 319 320 321 320 320 321 322 322 323 323 323 323 324 325 326 327 327 329 329 329 330 331
300 300 300 301 302 302 302 303 303 304 305 306 305 305 305 305 305 306 306 305 305 306 305 306 307 306 305 305 304 303 305 304 303 303 302 302 302 303 304 304 304 305 305 306 307 307 307 307 307 308 308 309 309 310 310 311 312 313 313 314 314 315 316 317 318 320 320 320 320 321 321 322 322 322 323 323 324 325 326 327 327 328 329 329 330 331
301 301 301 301 302 301 301 301 302 303 304 304 303 303 302 302 303 303 302 302 303 303 304 305 304 304 304 304 303 303 304 303 302 302 301 302 302 302 303 303 303 304 305 305 306 306 306 306 306 307 307 308 308 309 310 311 311 312 313 313 313 314 315 316 318 320 320 319 320 321 321 321 322 322 323 324 324 325 326 327 328 329 329 329 330 331
302 302 302 303 303 302 301 301 301 302 302 302 301 300 300 300 300 299 299 300 301 302 303 303 302 303 303 302 303 304 303 302 302 301 301 302 302 302 302 303 303 304 304 304 304 304 305 305 305 306 306 307 308 309 310 310 311 311 312 312 312 313 314 316 318 320 319 319 320 320 320 321 321 322 323 324 324 326 326 327 328 329 329 329 330 331
302 302 303 304 304 304 303 303 304 304 304 303 302 301 300 300 300 299 300 301 302 303 304 303 302 302 302 302 303 303 301 301 301 300 300 301 301 301 302 302 303 303 303 303 303 303 304 304 305 306 307 308 308 309 309 309 310 310 310 311 312 313 314 316 319 319 318 319 319 319 320 321 322 323 324 324 325 326 327 327 328 329 329 329 330 331
301 302 302 303 304 303 303 304 304 304 305 304 302 301 300 299 299 300 302 303 304 304 304 302 302 302 302 303 303 302 301 301 301 300 300 300 300 301 301 301 302 301 302 302 303 303 303 304 305 306 307 307 307 308 308 308 309 309 310 311 312 313 314 316 318 318 317 318 319 319 320 321 323 324 324 324 325 326 327 327 328 328 328 329 330 331
301 301 301 302 302 302 302 302 302 302 303 302 300 299 298 298 299 301 303 304 304 303 302 301 301 302 302 302 302 301 301 302 302 301 301 301 301 301 301 301 301 301 301 301 302 303 303 304 305 306 306 306 306 306 307 308 308 309 310 312 313 313 314 316 317 317 317 318 318 319 320 322 324 324 324 325 325 326 326 327 327 328 328 328 330 331
300 300 300 300 299 299 299 299 299 300 300 300 298 297 297 298 300 302 303 303 302 301 301 301 301 302 301 301 301 301 302 302 302 301 301 301 301 301 301 301 300 301 301 301 302 303 304 304 305 305 305 305 306 306 308 309 310 310 311 312 313 313 314 315 317 317 317 318 318 319 321 323 324 324 324 324 325 326 326 326 327 327 327 328 330 331
299 299 298 298 298 298 298 298 299 300 300 299 297 297 298 300 302 304 303 302 301 301 300 301 301 301 301 301 301 302 303 302 301 300 300 300 300 300 300 300 300 301 302 302 303 303 303 304 304 304 305 306 307 308 310 310 311 311 311 312 312 312 313 315 316 316 317 318 319 320 322 323 323 323 324 324 324 325 325 325 326 327 327 329 330 331
300 300 300 299 300 300 300 300 301 302 301 300 298 298 300 303 304 304 303 303 302 301 301 301 301 301 300 301 301 302 302 301 300 299 299 300 300 299 299 300 300 300 301 301 301 302 302 303 304 305 306 307 309 310 310 310 310 310 310 311 312 312 313 315 316 316 317 318 319 320 321 322 322 322 323 323 324 324 324 325 326 327 327 328 329 331
304 304 304 304 304 304 304 304 305 305 303 301 299 301 303 304 303 304 305 304 303 303 303 302 302 302 302 302 302 302 302 301 299 299 298 299 299 299 299 299 299 299 299 300 300 301 302 304 305 306 307 308 309 309 309 309 309 310 310 311 312 312 313 315 316 317 318 318 319 320 320 320 321 321 322 323 323 323 323 324 326 327 327 328 329 331
308 308 308 308 308 308 308 308 308 309 307 304 304 306 307 305 305 306 308 308 306 305 305 305 306 306 306 305 305 305 305 303 301 299 298 299 298 298 297 297 298 299 300 301 301 302 304 305 306 306 307 307 307 308 308 309 309 310 310 311 311 312 313 315 316 316 317 317 318 318 318 318 319 320 320 321 322 322 323 324 325 326 327 328 329 331
310 310 311 311 311 311 311 311 312 312 311 309 309 311 310 309 309 311 313 313 310 308 309 310 310 310 310 309 308 308 307 306 303 301 300 300 300 299 299 298 299 299 300 301 302 303 304 304 304 305 305 305 306 307 308 308 309 310 310 310 311 312 313 315 316 315 315 316 317 317 317 317 318 319 319 320 321 321 322 323 324 325 326 328 329 331
311 312 312 312 312 313 313 314 314 314 314 313 313 313 312 312 313 313 315 314 312 311 312 313 312 312 312 312 311 310 309 308 306 304 303 302 302 301 300 300 300 300 300 301 301 301 301 301 301 302 302 303 304 305 307 308 308 309 310 310 310 311 312 314 315 314 314 315 315 315 315 315 316 317 318 318 319 320 321 322 324 325 326 328 329 330
312 312 312 312 313 313 314 314 314 314 314 313 313 313 313 313 313 314 314 314 312 313 313 312 312 312 312 312 312 311 310 310 308 306 305 304 303 302 302 301 301 300 300 300 300 300 300 300 299 300 300 302 303 304 306 307 308 309 309 309 310 310 311 313 314 312 312 314 313 313 314 314 315 316 316 317 318 319 321 321 322 324 326 328 329 330
312 312 312 312 312 312 312 313 313 313 313 313 313 313 314 314 315 315 315 314 314 314 313 312 312 312 311 311 311 310 310 310 308 306 305 304 303 302 302 302 301 301 300 300 300 300 300 300 300 300 301 302 302 303 305 305 306 307 307 308 309 309 310 313 313 311 312 313 312 313 313 314 314 315 316 316 317 318 320 320 321 323 325 327 328 329
312 311 311 310 311 311 311 311 312 312 312 313 313 313 314 315 315 314 314 313 313 312 312 312 311 311 311 310 310 309 309 308 307 305 303 302 301 300 300 299 299 300 300 300 300 300 299 299 299 300 301 301 301 302 303 304 305 306 306 308 308 309 311 313 312 311 312 312 312 313 313 313 314 314 315 315 316 317 319 319 320 322 324 326 327 328
311 310 309 309 310 310 309 310 310 310 310 310 310 310 311 311 311 311 311 312 311 311 311 310 310 310 309 309 309 309 308 308 307 304 303 301 301 300 299 299 298 298 298 298 299 299 299 299 299 299 300 300 301 301 302 304 305 305 306 308 308 310 312 313 311 311 312 312 312 313 314 313 313 314 315 315 315 316 318 318 319 320 323 325 326 326
311 311 309 309 309 309 308 308 308 308 307 307 306 306 307 307 307 308 308 309 310 310 311 311 311 311 311 311 311 311 310 310 309 307 305 303 302 301 300 300 300 299 298 298 297 297 298 298 299 299 299 299 300 300 302 303 304 305 306 308 309 311 312 312 311 312 312 313 313 314 314 314 313 314 314 314 314 315 317 317 318 320 322 323 324 324
312 310 309 308 308 308 306 306 306 305 304 303 303 304 305 305 306 307 307 308 309 310 311 311 312 314 315 315 315 315 314 314 313 312 310 308 306 304 303 302 301 300 300 299 298 298 298 298 299 299 300 300 300 301 302 303 304 305 306 307 309 311 311 310 310 311 312 313 314 314 314 314 313 313 314 314 314 315 316 317 318 319 320 322 322 323
312 310 308 307 307 307 305 304 305 305 304 304 304 304 305 306 306 307 307 307 308 309 310 311 312 313 314 315 316 316 316 317 316 315 314 313 311 309 307 305 304 302 301 299 298 298 298 298 298 299 299 299 300 301 302 303 304 304 305 307 308 309 309 309 309 311 313 314 314 313 313 313 313 313 313 314 314 315 316 317 317 318 319 320 320 321
311 309 307 307 306 306 305 304 304 306 305 304 304 304 305 306 306 307 307 307 307 308 309 309 310 311 312 313 314 315 315 316 317 316 316 315 313 311 310 308 306 304 302 300 299 298 298 298 298 298 298 298 298 299 301 302 302 303 304 305 307 308 308 308 310 311 312 313 313 312 313 313 313 313 313 314 314 315 316 316 317 317 317 318 319 319
312 309 307 307 306 306 305 303 303 303 303 302 302 302 303 304 305 305 305 305 306 306 307 308 308 309 310 311 312 313 313 314 315 315 315 315 314 313 312 310 308 306 304 301 299 298 298 297 297 297 296 296 297 298 299 300 301 302 303 304 306 307 308 309 310 311 312 312 312 312 312 313 313 313 314 314 314 315 315 315 316 316 316 317 317 318
312 309 307 307 306 305 304 302 301 301 301 300 300 301 301 302 303 303 304 304 305 306 306 307 308 308 308 309 310 311 311 311 312 313 313 313 314 314 313 312 310 309 306 303 301 300 299 299 298 297 297 296 296 297 299 300 300 302 303 305 306 307 308 309 311 312 312 312 312 312 312 313 313 314 314 314 314 314 314 314 315 315 315 316 316 317
312 310 309 308 307 306 304 301 300 301 302 301 300 300 301 302 303 304 304 304 305 305 305 305 306 306 306 307 307 308 309 309 309 310 311 311 312 313 313 312 311 310 308 305 303 301 300 300 300 299 298 296 296 297 299 300 301 302 303 305 307 307 308 310 311 312 312 312 312 313 313 313 314 314 313 313 314 314 314 313 313 314 314 315 315 315
314 313 311 310 309 308 307 304 302 303 305 304 303 302 302 302 303 303 303 303 303 303 303 304 304 305 305 305 306 306 307 307 307 308 309 310 310 311 311 311 311 310 309 307 305 303 301 300 299 298 298 296 296 297 299 300 300 301 304 306 307 308 309 310 312 312 312 312 312 313 313 313 313 313 313 313 313 313 313 312 312 313 314 314 313 313
318 316 314 312 311 312 312 309 306 305 306 306 305 303 302 302 302 303 303 303 304 304 305 305 306 306 306 306 306 306 306 306 306 306 307 308 309 309 309 310 310 310 308 306 305 304 302 300 298 297 297 296 296 297 298 299 299 300 303 306 307 307 309 310 311 312 311 311 312 312 312 312 312 312 312 312 312 313 312 311 311 312 313 312 312 313
320 319 317 315 315 317 316 314 311 309 308 308 308 307 306 306 306 306 306 307 307 307 307 307 307 307 306 306 305 305 306 306 306 305 306 306 307 307 307 308 308 308 307 306 304 303 302 301 298 295 294 294 294 295 296 297 297 299 303 305 306 307 308 310 310 311 310 311 311 311 311 311 312 312 312 312 311 311 311 310 310 311 311 311 311 312
322 322 321 319 319 319 319 317 315 313 312 312 312 311 310 309 309 309 308 308 308 308 307 307 307 306 305 304 303 303 303 304 304 304 304 304 305 305 305 306 306 305 305 304 303 302 302 302 300 297 294 293 292 293 295 297 297 300 302 304 305 306 307 308 309 309 309 309 310 310 310 310 310 310 310 310 309 309 309 308 308 308 309 309 310 312